Location: Killam
(52.7910°N, 111.8608°W)
Time: 16:19:11
(UTC+00:00)

Vanguard 2 Rocket - Pass Details

Date: 22 February 2026
Orbit: 553 x 3286 km, 32.9° (Epoch: 11 March)

Event Time Altitude Azimuth Distance (km) Brightness Sun altitude
Rises 15:25:30 0° 173° (S) 6,948 11.9 7.1°
Reaches altitude 10° 15:37:11 10° 142° (SE) 6,224 12.7 8.7°
Maximum altitude 15:40:20 11° 133° (SE) 6,175 13.3 9.1°
Drops below altitude 10° 15:43:29 10° 123° (ESE) 6,197 15.0 9.5°
Sets 15:54:46 0° 93° (E) 6,845 12.5 10.9°
